This is the latest recevied weather packets stored in our database for station/object PACCTY-2. If no packets are shown the sender has not sent any weather packets the latest 1 day(s).
| Time | Temp. | Humidity | Pressure | Rain* | Wind** | Luminosity | Snow |
|---|---|---|---|---|---|---|---|
| 1778048202 | 12.78° C | - | - | 0 mm | 0 m/s | - | - |
| 1778046732 | 12.78° C | - | - | 0 mm | 0 m/s | - | - |
| 1778046698 | 12.78° C | - | - | 0 mm | 0 m/s | - | - |
| 1778046096 | 13.33° C | - | - | 0 mm | 0 m/s | - | - |
| 1778045794 | 13.33° C | - | - | 0 mm | 0 m/s | - | - |
| 1778044289 | 13.33° C | - | - | 0 mm | 1.79 m/s, 336° | - | - |
| 1778043988 | 13.33° C | - | - | 0 mm | 1.79 m/s, 324° | - | - |
| 1778043387 | 13.33° C | - | - | 0 mm | 0 m/s | - | - |
| 1778042182 | 13.33° C | - | - | 0 mm | 1.34 m/s, 338° | - | - |
| 1778041934 | 13.33° C | - | - | 0 mm | 1.34 m/s, 9° | - | - |
| 1778041881 | 13.33° C | - | - | 0 mm | 1.34 m/s, 9° | - | - |
| 1778041580 | 12.78° C | - | - | 0 mm | 1.79 m/s, 317° | - | - |
| 1778041280 | 12.78° C | - | - | 0 mm | 0 m/s | - | - |
| 1778040978 | 12.78° C | - | - | 0 mm | 0 m/s | - | - |
| 1778040075 | 12.78° C | - | - | 0 mm | 2.24 m/s, 30° | - | - |
| 1778039172 | 13.33° C | - | - | 0 mm | 3.13 m/s, 338° | - | - |
| 1778038870 | 13.33° C | - | - | 0 mm | 2.68 m/s, 329° | - | - |
| 1778038570 | 13.33° C | - | - | 0 mm | 2.24 m/s, 330° | - | - |
| 1778038268 | 13.33° C | - | - | 0 mm | 2.68 m/s, 333° | - | - |
| 1778037365 | 13.33° C | - | - | 0 mm | 1.79 m/s, 344° | - | - |
| 1778037064 | 13.33° C | - | - | 0 mm | 2.24 m/s, 344° | - | - |
| 1778036763 | 13.33° C | - | - | 0 mm | 2.24 m/s, 333° | - | - |
| 1778036161 | 13.33° C | - | - | 0 mm | 2.24 m/s, 338° | - | - |
| 1778035863 | 13.33° C | - | - | 0 mm | 2.24 m/s, 322° | - | - |
| 1778035561 | 13.33° C | - | - | 0 mm | 1.79 m/s, 341° | - | - |
* Rain latest hour (hover to see other rain measurements)
** Current wind speed in m/s (hover to see current wind gust speed)